Regional Weather Roundup
Issued by NWS Boston, MA

Home | Current Version | Previous Version | Text Only | Print | Product List | Glossary On
Versions: 1 2 3 4 5 6 7 8 9 10 11 12 13 14 15 16 17 18 19 20 21 22 23 24 25 26 27 28 29 30 31 32 33 34 35 36 37 38 39 40 41 42 43 44 45 46 47 48 49 50
000
ASUS41 KBOX 030710
RWRBOX

REGIONAL WEATHER ROUNDUP
NATIONAL WEATHER SERVICE TAUNTON MA
300 AM EDT THU SEP 03 2015

NOTE:  "FAIR" INDICATES FEW OR NO CLOUDS BELOW 12,000 FEET WITH NO
SIGNIFICANT WEATHER AND/OR OBSTRUCTIONS TO VISIBILITY.  THE FOLLOWING
OBSERVATION LOCATIONS DO NOT REPORT PRESENT WEATHER...PROVINCETOWN...
SMITHFIELD...BLOCK ISLAND...KEENE...AND OXFORD.

MAZALL-030800-
EASTERN MASSACHUSETTS

CITY           SKY/WX    TMP DP  RH WIND       PRES   REMARKS
BOSTON         CLEAR     73  65  75 SW3       29.84S
BEVERLY        PTCLDY    66  63  90 SW3       29.83F
LAWRENCE       PTCLDY    69  64  84 S3        29.86S
BEDFORD        CLEAR     64  61  90 CALM      29.83F
BLUE HILL        N/A     67  63  87 W10       29.86S
NORWOOD        CLEAR     61  60  97 CALM      29.84F FOG
MARSHFIELD     CLEAR     70  64  83 W6        29.86S
PLYMOUTH       CLEAR     65  64  97 CALM      29.86F
TAUNTON        CLEAR     64  62  93 CALM      29.85S
NEW BEDFORD    CLEAR     66  65  96 SW5       29.85S
$$

MAZALL-030800-
CAPE COD AND THE ISLANDS

CITY           SKY/WX    TMP DP  RH WIND       PRES   REMARKS
FALMOUTH       CLEAR     70  68  94 SW10      29.86S
HYANNIS        CLEAR     71  67  87 SW9       29.84F
CHATHAM        CLEAR     72  67  84 SW9       29.86F
PROVINCETOWN     N/A     68  61  77 SW7       29.84S
NANTUCKET        N/A    N/A N/A N/A MISG      29.87S
MARTHAS VNYRD  CLEAR     70  68  93 SW6       29.86F
$$

MAZALL-030800-
CENTRAL AND WESTERN MASSACHUSETTS

CITY           SKY/WX    TMP DP  RH WIND       PRES   REMARKS
WORCESTER      CLEAR     68  63  84 W9        29.89F
FITCHBURG      CLEAR     69  64  84 N3        29.86F
ORANGE         PTCLDY    62  61  96 CALM      29.87F FOG
SPRINGFIELD    FOG       63  61  94 CALM      29.85F VSB 1
WESTFIELD      CLEAR     64  63  96 CALM      29.86F FOG
NORTH ADAMS    PTCLDY    61  59  93 CALM      29.90F FOG
PITTSFIELD     FOG       61  60  97 CALM      29.90F VSB 3/4
$$

RIZALL-030800-
RHODE ISLAND

CITY           SKY/WX    TMP DP  RH WIND       PRES   REMARKS
PROVIDENCE     CLEAR     70  64  81 W7        29.86F
NEWPORT        CLEAR     70  66  87 W5        29.86F
BLOCK ISLAND   CLEAR     70  70 100 W8        29.87F
SMITHFIELD     CLEAR     64  63  94 SW3       29.87S
WESTERLY       PTCLDY    67  64  90 CALM      29.87S
$$

CTZALL-030800-
CONNECTICUT

CITY           SKY/WX    TMP DP  RH WIND       PRES   REMARKS
BRADLEY INTL   CLEAR     67  64  90 W5        29.85F
HARTFORD       CLEAR     69  65  86 S5        29.86F
BRIDGEPORT     CLEAR     72  65  78 CALM      29.86F
DANBURY        CLEAR     64  61  90 CALM      29.89F FOG
GROTON         PTCLDY    70  68  93 CALM      29.86F
NEW HAVEN      CLEAR     68  65  90 CALM      29.87F
CHESTER        NOT AVBL
MERIDEN        CLEAR     65  62  90 CALM      29.87F FOG
WILLIMANTIC    CLEAR     65  62  90 CALM      29.87F
OXFORD         CLEAR     64  57  77 CALM      29.90F
$$

MEZ002-015-021-024-NHZ003-005-008-011-012-014-VTZ005-008-030800-
NORTHERN NEW ENGLAND

CITY           SKY/WX    TMP DP  RH WIND       PRES   REMARKS
PORTLAND ME    PTCLDY    65  64  97 W6        29.83F
BANGOR ME      PTCLDY    63  61  93 S3        29.82S
CONCORD NH     PTCLDY    65  62  90 CALM      29.85F
MANCHESTER NH  MOCLDY    70  64  81 CALM      29.83F
NASHUA NH      PTCLDY    67  64  90 CALM      29.85F
PORTSMOUTH NH  MOCLDY    68  65  90 W3        29.81F
JAFFREY NH     PTCLDY    63  61  93 CALM      29.89F FOG
KEENE NH       CLOUDY    66  61  82 CALM      29.88F VSB 1/4
BURLINGTON VT  MOCLDY    68  65  90 CALM      29.88F FOG
MT. WASHINGTON FOG       54  54 100 NW26        N/A  VSB 1/16
$$

NYZ052-076-030800-
EASTERN NEW YORK

CITY           SKY/WX    TMP DP  RH WIND       PRES   REMARKS
ALBANY         PTCLDY    68  64  87 CALM      29.88F
NEW YORK CITY  PTCLDY    78  70  76 NW6       29.85F
$$

ANZALL-030800-
MARINE OBSERVATIONS

STATION/POSITION TIME  TEMP    WIND        PRES    VSBY  WAVE
                       AIR SEA DIR/SP/G                  HT/PER
                 (UTC) (F)     (DEG/KT/KT) (MB)    (MI)  (FT/S)
BOSTON BUOY      0650   71 71  250/ 10/ 12 1010.2F         1/11
BUZZARDS BAY     0600          240/ 12/ 12 1012.1F
NANTUCKET SOUND  0650   72 74  240/ 10/ 12 1010.7F         1
MASS BAY-STELLWA 0604   71 69  250/ 10/ 10   N/A    1 7/8  1/ 4
ISLE OF SHOALS   0700   70     300/  6/  6 1009.3F
S OF BLOCK IS    0608      74                N/A           2/ 7
$$

......................KEY.........................
  SKY/WX - SKY CONDITION/PRESENT WEATHER
  TMP    - TEMPERATURE IN FAHRENHEIT
  DWPT   - DEWPOINT IN FAHRENHEIT
  RH     - RELATIVE HUMIDITY IN PERCENT
  WIND   - DIRECTION AND SPEED IN MPH
  PRES   - MEAN SEA LEVEL PRESSURE IN INCHES OF HG
  WCI    - WIND CHILL INDEX
  VSB    - VISIBILITY IN MILES
  HX     - HEAT INDEX
  TC     - TEMPERATURE IN CELSIUS
  VRB    - VARIABLE WIND DIRECTION
  N/A    - NOT AVAILABLE


USA.gov is the U.S. government's official web portal to all federal, state and local government web resources and services.